User: anonymous   Login
Location: Petruro
(41.0333°N, 14.7833°E)
Time: 16:00:47
(UTC+00:00)
Language:

Meteor 1-28 Rocket - Orbit

View from above orbital plane
View from above orbital plane
View from above satellite
View from above satellite

Ground track
Ground track

The orbit data is extracted from the following two-line orbital elements,

1 10114U 77057B   21264.91907373  .00000559  00000-0  30773-4 0  9990
2 10114  97.3726  45.8173 0011943 279.7727  80.2158 15.17921418419557
Epoch (UTC): 21 September 2021 22:03:27
Eccentricity: 0.0011943
inclination: 97.3726°
perigee height: 504 km
apogee height: 520 km
right ascension of ascending node: 45.8173°
argument of perigee: 279.7727°
revolutions per day: 15.17921418
mean anomaly at epoch: 80.2158°
orbit number at epoch: 41955

The dashed part of the orbit path shows where the satellite is in the earth's shadow,  

DLR